Location: Mizzole
(45.4833°N, 11.0500°E)
Time: 11:45:24
(UTC+00:00)

ADEOS Rocket - Pass Details

Date: 21 October 2019
Orbit: 859 x 1306 km, 98.7° (Epoch: 13 November)

Event Time Altitude Azimuth Distance (km) Brightness Sun altitude
Rises 17:55:34 0° 21° (NNE) 4,286 6.2 -17.3°
Reaches altitude 10° 17:58:47 10° 31° (NNE) 3,281 5.5 -17.9°
Maximum altitude 18:05:18 30° 91° (E) 2,024 4.1 -19.0°
Enters shadow 18:07:23 26° 119° (ESE) 2,149 4.3 -19.4°
Exits shadow 18:10:27 14° 145° (SE) 2,790 5.0 -19.9°
Drops below altitude 10° 18:11:22 10° 150° (SSE) 3,045 5.3 -20.1°
Sets 18:14:12 0° 161° (SSE) 3,934 5.9 -20.6°
